NOAA 16 DEB, 41654

Orbit data source: Space-Track

NOAA 16 DEB, 41654 is space debris in SSO originally from a launch on Thu, 21 Sep 2000 UTC launched from the Air Force Western Test Range (AFWTR). Debris objects in space refer to the collection of defunct objects orbiting the Earth. Examples of debris include non-operational satellites, rocket bodies, and fragments generated from explosions, collisions, or faulty payload assembly.

Loading next visibility...
Identifier
41654, 2000-055NT
Orbit
SSO
Country
Flag of USUS
Related business
Manufacturer
Unknown
Mission
Spacecraft
Bus & Motor
Unknown
Mass
Unknown
Launch date (UTC)
2000-09-21 (25 years ago)
Launch vehicle
Unknown
Launch site
Air Force Western Test Range (AFWTR)
Object type
Payload
Rocket body
Debris
Shape & HBR
Unknown shape, 0.1 m
Radar Cross Section
Small (<0.1 m²)

Expand to show TLE details & history
Last TLE update: 21 hours ago

TLE from 21 hours ago
0 NOAA 16 DEB
1 41654U 00055NT  25346.37105919  .00006376  00000-0  25862-2 0  9992
2 41654  98.6364  34.3205 0036457 337.7488  22.2109 14.27630992498628
Epoch: 2025-12-12T08:54Z
TLE epoch observation values (Epoch: 2025-12-12T08:54:19.514Z)
Latitude
-0.00003°
Longitude
179.42555°
Altitude
778.37 km
Speed
7.477 km/s
True Right ascension
02h 17m 16s
True Declination
0° 00' 00"
Sunlit
Object was in full shadow at epoch
Visualization orbit readout
Latitude
Unknown
Longitude
Unknown
Altitude
Unknown
Speed
Unknown
Apparent Right ascension
Unknown
Apparent Declination
Unknown
Sunlit
N/A
Visualization observer readout
Local Sidereal Time
04:34:16
Azimuth
Unknown
Elevation
Unknown
Doppler factor
Unknown
Orbital elements
Apogee altitude
822.963 km
Perigee altitude
770.648 km
Semi-major axis
7,174.942 km
Eccentricity
0.00365
Inclination
98.6364°
RAAN
34.3205°
Arg. of periapsis
337.7488°
True anomaly
22.36949°
Mean anomaly
22.2109°
Eccentric anomaly
22.29013°
Mean motion
3.57121 °/min
Orbital period
100.81 mins
BSTAR
0.0025862
Loading maneuver chart data...
Computing Atmospheric mass density...

Documentation

Showing up to 5 results
|